Terminal Aerodrome Forecast
Issued by NWS

Home | Current Version | Previous Version | Text Only | Print | Product List | Glossary On
Versions: 1 2 3 4 5 6 7 8 9 10 11 12 13
000
FTUS43 KGRR 221100
TAFMKG
TAF
KMKG 221140Z 2212/2312 18010KT P6SM SCT200
     FM221500 19015G25KT P6SM SCT120
     FM222300 21014G22KT 4SM HZ VCTS OVC050CB
     FM230300 34013G21KT P6SM BKN100=

USA.gov is the U.S. government's official web portal to all federal, state and local government web resources and services.